DLH11H EDDM-LOWG

Flight info

Callsign DLH11H
Flight time 0h 36m
Altitude 29000
Route KIRDI DCT BUBSE DCT LEOBE
Aircraft A319/M-SDE2E3FGIJ1LORWXYZ/HB1

Departure

Time 2026-05-06 09:31
Airport Munich Airport (EDDM)

Arrival

Time 2026-05-06 10:07
Airport Graz Airport (LOWG)
Time Latitude Longitude Altitude Speed Heading
2026-05-06 09:06 48.35099 11.79366 1477 ft 0 kts 263°
2026-05-06 09:18 48.35100 11.79380 1473 ft 4 kts 263°
2026-05-06 09:18 48.35103 11.79420 1480 ft 4 kts 263°
2026-05-06 09:19 48.35105 11.79453 1482 ft 3 kts 262°
2026-05-06 09:19 48.35113 11.79489 1471 ft 4 kts 227°
2026-05-06 09:19 48.35134 11.79508 1475 ft 4 kts 181°
2026-05-06 09:19 48.35157 11.79506 1480 ft 1 kts 173°
2026-05-06 09:20 48.35157 11.79505 1480 ft 0 kts 173°
2026-05-06 09:23 48.35145 11.79508 1480 ft 4 kts 173°
2026-05-06 09:23 48.35107 11.79514 1482 ft 6 kts 173°
2026-05-06 09:24 48.35061 11.79523 1479 ft 7 kts 173°
2026-05-06 09:24 48.35012 11.79531 1479 ft 7 kts 173°
2026-05-06 09:24 48.34955 11.79541 1482 ft 9 kts 174°
2026-05-06 09:24 48.34891 11.79552 1482 ft 9 kts 173°
2026-05-06 09:25 48.34823 11.79560 1485 ft 10 kts 182°
2026-05-06 09:25 48.34752 11.79550 1485 ft 10 kts 183°
2026-05-06 09:25 48.34678 11.79560 1476 ft 11 kts 178°
2026-05-06 09:25 48.34611 11.79513 1479 ft 11 kts 230°
2026-05-06 09:26 48.34562 11.79416 1482 ft 12 kts 233°
2026-05-06 09:26 48.34512 11.79315 1480 ft 12 kts 233°
2026-05-06 09:26 48.34490 11.79271 1482 ft 0 kts 233°
2026-05-06 09:29 48.34487 11.79265 1481 ft 2 kts 233°
2026-05-06 09:29 48.34468 11.79227 1485 ft 7 kts 233°
2026-05-06 09:29 48.34430 11.79153 1480 ft 11 kts 230°
2026-05-06 09:30 48.34376 11.79076 1483 ft 11 kts 242°
2026-05-06 09:30 48.34372 11.79046 1485 ft 0 kts 263°
2026-05-06 09:30 48.34370 11.79020 1486 ft 16 kts 263°
2026-05-06 09:30 48.34324 11.78422 1486 ft 96 kts 263°
2026-05-06 09:31 48.34222 11.77094 1489 ft 157 kts 263°
2026-05-06 09:31 48.34096 11.75458 2071 ft 156 kts 264°
2026-05-06 09:31 48.33973 11.73828 2728 ft 159 kts 263°
2026-05-06 09:31 48.33599 11.72173 3099 ft 181 kts 233°
2026-05-06 09:32 48.32544 11.71004 3422 ft 202 kts 196°
2026-05-06 09:32 48.31062 11.70797 3811 ft 224 kts 180°
2026-05-06 09:32 48.29506 11.70803 4790 ft 223 kts 173°
2026-05-06 09:32 48.28022 11.71488 5620 ft 232 kts 151°
2026-05-06 09:33 48.26610 11.72903 6126 ft 256 kts 146°
2026-05-06 09:33 48.25107 11.74459 6894 ft 267 kts 146°
2026-05-06 09:33 48.23561 11.76047 7824 ft 271 kts 147°
2026-05-06 09:33 48.22008 11.77631 8775 ft 276 kts 148°
2026-05-06 09:34 48.20427 11.79296 9722 ft 282 kts 143°
2026-05-06 09:34 48.19144 11.81571 10567 ft 293 kts 123°
2026-05-06 09:34 48.18446 11.84477 11448 ft 303 kts 102°
2026-05-06 09:34 48.18451 11.87669 12340 ft 311 kts 87°
2026-05-06 09:35 48.18688 11.90906 13236 ft 314 kts 88°
2026-05-06 09:35 48.18927 11.94172 14046 ft 317 kts 88°
2026-05-06 09:35 48.19168 11.97483 14788 ft 322 kts 88°
2026-05-06 09:35 48.19407 12.00839 15487 ft 328 kts 88°
2026-05-06 09:36 48.19652 12.04360 15699 ft 351 kts 88°
2026-05-06 09:36 48.19909 12.08078 16090 ft 365 kts 88°
2026-05-06 09:36 48.20175 12.11901 16709 ft 372 kts 88°
2026-05-06 09:36 48.20446 12.15779 17384 ft 377 kts 88°
2026-05-06 09:37 48.20720 12.19708 18071 ft 381 kts 88°
2026-05-06 09:37 48.20993 12.23683 18682 ft 386 kts 88°
2026-05-06 09:37 48.21268 12.27704 19272 ft 390 kts 88°
2026-05-06 09:37 48.21544 12.31773 19863 ft 395 kts 89°
2026-05-06 09:38 48.21821 12.35891 20455 ft 399 kts 89°
2026-05-06 09:38 48.22099 12.40056 21038 ft 404 kts 89°
2026-05-06 09:38 48.22377 12.44267 21610 ft 408 kts 89°
2026-05-06 09:38 48.22658 12.48526 22183 ft 413 kts 89°
2026-05-06 09:39 48.22942 12.52831 22758 ft 417 kts 89°
2026-05-06 09:39 48.23053 12.57174 23313 ft 416 kts 98°
2026-05-06 09:39 48.22738 12.61472 23796 ft 416 kts 104°
2026-05-06 09:39 48.22329 12.65785 24280 ft 419 kts 104°
2026-05-06 09:40 48.21915 12.70124 24747 ft 422 kts 104°
2026-05-06 09:40 48.21494 12.74500 25217 ft 426 kts 104°
2026-05-06 09:40 48.20805 12.83403 26120 ft 438 kts 96°
2026-05-06 09:41 48.20891 12.88007 26567 ft 444 kts 94°
2026-05-06 09:41 48.21000 12.92645 26993 ft 447 kts 94°
2026-05-06 09:41 48.21106 12.97319 27401 ft 450 kts 94°
2026-05-06 09:41 48.21208 13.02029 27828 ft 454 kts 94°
2026-05-06 09:42 48.21310 13.06772 28255 ft 457 kts 94°
2026-05-06 09:42 48.21410 13.11551 28664 ft 460 kts 94°
2026-05-06 09:42 48.21506 13.16352 28798 ft 458 kts 94°
2026-05-06 09:42 48.21605 13.21027 28813 ft 440 kts 94°
2026-05-06 09:43 48.21703 13.25544 28809 ft 429 kts 94°
2026-05-06 09:43 48.21791 13.29994 28816 ft 426 kts 94°
2026-05-06 09:43 48.21797 13.38817 28791 ft 418 kts 103°
2026-05-06 09:44 48.21236 13.43038 28820 ft 409 kts 114°
2026-05-06 09:44 48.20227 13.46973 28820 ft 400 kts 124°
2026-05-06 09:44 48.17174 13.53720 28821 ft 388 kts 137°
2026-05-06 09:45 48.13823 13.60059 28824 ft 388 kts 137°
2026-05-06 09:45 48.10465 13.66377 28824 ft 388 kts 137°
2026-05-06 09:46 48.07113 13.72690 28814 ft 387 kts 137°
2026-05-06 09:46 48.03767 13.79002 28795 ft 387 kts 137°
2026-05-06 09:47 48.00420 13.85296 28809 ft 387 kts 137°
2026-05-06 09:47 47.97068 13.91573 28809 ft 386 kts 137°
2026-05-06 09:48 47.93733 13.97790 28815 ft 386 kts 136°
2026-05-06 09:48 47.90370 14.04043 28819 ft 387 kts 137°
2026-05-06 09:49 47.86998 14.10297 28802 ft 388 kts 137°
2026-05-06 09:49 47.85306 14.13433 28425 ft 390 kts 137°
2026-05-06 09:49 47.83611 14.16578 27842 ft 390 kts 136°
2026-05-06 09:50 47.81913 14.19724 27267 ft 390 kts 137°
2026-05-06 09:50 47.80230 14.22840 27080 ft 381 kts 137°
2026-05-06 09:50 47.78591 14.25884 26734 ft 374 kts 137°
2026-05-06 09:50 47.76969 14.28891 26210 ft 371 kts 137°
2026-05-06 09:51 47.75361 14.31862 25682 ft 368 kts 137°
2026-05-06 09:51 47.73766 14.34798 25090 ft 363 kts 137°
2026-05-06 09:51 47.72185 14.37699 24438 ft 359 kts 137°
2026-05-06 09:51 47.70618 14.40568 23778 ft 356 kts 138°
2026-05-06 09:52 47.69067 14.43405 23005 ft 353 kts 137°
2026-05-06 09:52 47.67522 14.46226 22314 ft 352 kts 136°
2026-05-06 09:52 47.65984 14.49036 21837 ft 350 kts 136°
2026-05-06 09:52 47.64458 14.51826 21398 ft 346 kts 136°
2026-05-06 09:53 47.62950 14.54584 20866 ft 343 kts 136°
2026-05-06 09:53 47.61450 14.57320 20327 ft 341 kts 135°
2026-05-06 09:53 47.59961 14.60031 19774 ft 338 kts 135°
2026-05-06 09:53 47.58481 14.62725 19286 ft 336 kts 135°
2026-05-06 09:54 47.57013 14.65397 18786 ft 334 kts 135°
2026-05-06 09:54 47.55553 14.68052 18328 ft 331 kts 135°
2026-05-06 09:54 47.54108 14.70678 17840 ft 328 kts 134°
2026-05-06 09:54 47.52673 14.73286 17335 ft 325 kts 134°
2026-05-06 09:55 47.51251 14.75868 16821 ft 323 kts 134°
2026-05-06 09:55 47.49839 14.78435 16313 ft 321 kts 134°
2026-05-06 09:55 47.48433 14.80983 15810 ft 319 kts 134°
2026-05-06 09:55 47.47032 14.83512 15271 ft 316 kts 133°
2026-05-06 09:56 47.45650 14.86005 14763 ft 311 kts 134°
2026-05-06 09:56 47.44285 14.88466 14242 ft 308 kts 134°
2026-05-06 09:56 47.42935 14.90898 13750 ft 304 kts 133°
2026-05-06 09:56 47.41600 14.93301 13170 ft 301 kts 134°
2026-05-06 09:57 47.40276 14.95678 12595 ft 298 kts 133°
2026-05-06 09:57 47.38964 14.98028 12015 ft 295 kts 134°
2026-05-06 09:57 47.37669 15.00354 11469 ft 292 kts 134°
2026-05-06 09:57 47.36576 15.02837 10920 ft 294 kts 121°
2026-05-06 09:58 47.35889 15.05699 10299 ft 299 kts 108°
2026-05-06 09:58 47.35446 15.08685 9742 ft 296 kts 108°
2026-05-06 09:58 47.35002 15.11635 9115 ft 293 kts 108°
2026-05-06 09:58 47.34559 15.14550 8524 ft 289 kts 107°
2026-05-06 09:59 47.34117 15.17438 7981 ft 287 kts 107°
2026-05-06 09:59 47.33694 15.20203 7842 ft 267 kts 107°
2026-05-06 09:59 47.33292 15.22823 7635 ft 258 kts 107°
2026-05-06 09:59 47.32894 15.25380 7504 ft 254 kts 106°
2026-05-06 10:00 47.32503 15.27890 7483 ft 251 kts 108°
2026-05-06 10:00 47.32113 15.30399 7485 ft 252 kts 108°
2026-05-06 10:00 47.31488 15.32776 7422 ft 246 kts 127°
2026-05-06 10:00 47.30363 15.34597 7120 ft 238 kts 148°
2026-05-06 10:01 47.28913 15.35680 6807 ft 232 kts 168°
2026-05-06 10:01 47.27347 15.36141 6501 ft 228 kts 173°
2026-05-06 10:01 47.25796 15.36565 6076 ft 227 kts 172°
2026-05-06 10:01 47.24252 15.36996 5865 ft 222 kts 171°
2026-05-06 10:02 47.22762 15.37418 5730 ft 214 kts 171°
2026-05-06 10:02 47.21334 15.37813 5614 ft 204 kts 171°
2026-05-06 10:02 47.19971 15.38188 5526 ft 195 kts 172°
2026-05-06 10:02 47.18649 15.38549 5300 ft 193 kts 172°
2026-05-06 10:03 47.17331 15.38913 5028 ft 192 kts 172°
2026-05-06 10:03 47.16019 15.39285 4783 ft 191 kts 170°
2026-05-06 10:03 47.14710 15.39649 4446 ft 191 kts 171°
2026-05-06 10:03 47.13402 15.40007 4144 ft 190 kts 171°
2026-05-06 10:04 47.12110 15.40367 3842 ft 188 kts 170°
2026-05-06 10:04 47.10837 15.40721 3567 ft 184 kts 172°
2026-05-06 10:04 47.09616 15.41069 3300 ft 174 kts 172°
2026-05-06 10:04 47.08453 15.41390 3042 ft 166 kts 172°
2026-05-06 10:05 47.07368 15.41684 2799 ft 149 kts 173°
2026-05-06 10:05 47.06421 15.41945 2578 ft 134 kts 174°
2026-05-06 10:05 47.05510 15.42194 2376 ft 129 kts 175°
2026-05-06 10:05 47.04935 15.42352 2237 ft 126 kts 176°
2026-05-06 10:06 47.04070 15.42588 2051 ft 127 kts 173°
2026-05-06 10:06 47.03208 15.42832 1843 ft 125 kts 171°
2026-05-06 10:06 47.02347 15.43068 1627 ft 126 kts 169°
2026-05-06 10:06 47.01501 15.43300 1455 ft 121 kts 171°
2026-05-06 10:07 47.00667 15.43536 1258 ft 122 kts 172°
2026-05-06 10:07 46.99847 15.43764 1123 ft 111 kts 172°
2026-05-06 10:07 46.99258 15.43915 1104 ft 32 kts 171°
2026-05-06 10:07 46.99229 15.43926 1107 ft 1 kts 140°
2026-05-06 10:08 46.99242 15.43941 1110 ft 9 kts 33°
2026-05-06 10:08 46.99300 15.44031 1106 ft 13 kts 47°
2026-05-06 10:08 46.99361 15.44130 1105 ft 13 kts 47°
2026-05-06 10:08 46.99422 15.44228 1108 ft 13 kts 46°
2026-05-06 10:09 46.99498 15.44258 1109 ft 11 kts 351°
2026-05-06 10:09 46.99575 15.44237 1112 ft 11 kts 349°
2026-05-06 10:09 46.99649 15.44215 1114 ft 11 kts 349°
2026-05-06 10:09 46.99721 15.44195 1115 ft 10 kts 349°
2026-05-06 10:10 46.99791 15.44187 1116 ft 10 kts 21°
2026-05-06 10:10 46.99817 15.44275 1116 ft 10 kts 78°
2026-05-06 10:10 46.99829 15.44363 1116 ft 6 kts 79°
2026-05-06 10:10 46.99799 15.44401 1112 ft 7 kts 164°
2026-05-06 10:11 46.99760 15.44413 1115 ft 3 kts 169°
2026-05-06 10:11 46.99754 15.44415 1107 ft 0 kts 168°